Hayward, WI

7:10 PM CDT on March 30, 2017 (GMT -0500)
Sawyer County

Weather History for KHYR - April, 2013

Change the Weather History Date:

Thursday, April 11, 2013

  Actual Average Record
Temperature  
Mean Temperature 30 °F -  
Max Temperature 34 °F 56 °F 77 °F (2006)
Min Temperature 26 °F 27 °F 12 °F (1997)
Degree Days  
Heating Degree Days 36    
Moisture  
Dew Point 23 °F    
Average Humidity 78    
Maximum Humidity 93    
Minimum Humidity 42    
Precipitation  
Precipitation 0.08 in - - ()
Sea Level Pressure  
Sea Level Pressure 29.85 in    
Wind  
Wind Speed 12 mph (NE)    
Max Wind Speed 20 mph    
Max Gust Speed 29 mph    
Visibility 4 miles    
Events Fog , Snow    
Averages and records for this station are not official NWS values.
T = Trace of Precipitation, MM = Missing Value Source: NWS Daily Summary

Daily Weather History Graph

Daily Weather History Graph

Search for Another Location

Airport or City:

Trip Planner

Search our weather history database for the weather conditions in past years. The results will help you decide how hot, cold, wet, or windy it might be!

Date:

Astronomy

Apr. 11, 2013 Rise Set
Actual Time 6:26 AM CDT 7:47 PM CDT
Civil Twilight 5:55 AM CDT 8:18 PM CDT
Nautical Twilight 5:18 AM CDT 8:56 PM CDT
Astronomical Twilight 4:38 AM CDT 9:36 PM CDT
Moon 6:53 AM CDT (4/11) 9:28 PM CDT (4/11)
Length of Visible Light 14h 23m
Length of Day
13h 21m
New Moon, 2% of the Moon is Illuminated
Apr 11
New Moon
Apr 18
First Quarter
Apr 25
Full
May 2
Last Quarter
May 9
New

Hourly Weather History & Observations

Time (CDT) Temp. Windchill Dew Point Humidity Pressure Visibility Wind Dir Wind Speed Gust Speed Precip Events Conditions
12:53 AM 33.1 °F 23.0 °F 12.0 °F 42% 30.02 in 10.0 mi NE 15.0 mph 20.7 mph N/A   Overcast
1:53 AM 33.1 °F 23.0 °F 12.9 °F 43% 30.03 in 10.0 mi ENE 15.0 mph 21.9 mph N/A   Mostly Cloudy
2:53 AM 33.1 °F 24.4 °F 12.9 °F 43% 30.00 in 10.0 mi ENE 11.5 mph 20.7 mph N/A   Mostly Cloudy
3:53 AM 32.0 °F 21.2 °F 14.0 °F 48% 29.99 in 10.0 mi ENE 16.1 mph 21.9 mph N/A   Overcast
4:53 AM 32.0 °F 23.0 °F 16.0 °F 52% 29.96 in 10.0 mi NE 11.5 mph 20.7 mph N/A   Overcast
5:53 AM 32.0 °F 21.6 °F 19.0 °F 59% 29.92 in 10.0 mi NE 15.0 mph 25.3 mph N/A   Overcast
6:53 AM 32.0 °F 22.5 °F 19.0 °F 59% 29.87 in 10.0 mi ENE 12.7 mph 26.5 mph N/A   Overcast
7:53 AM 32.0 °F 23.0 °F 19.0 °F 59% 29.88 in 10.0 mi NE 11.5 mph 24.2 mph N/A   Overcast
8:53 AM 32.0 °F 28.7 °F 19.9 °F 61% 29.99 in 8.0 mi Variable 3.5 mph - 0.00 in Snow Light Snow
9:09 AM 30.2 °F 24.3 °F 21.2 °F 69% 29.93 in 1.8 mi NNE 5.8 mph - 0.00 in Snow Light Snow
9:14 AM 30.2 °F 21.3 °F 23.0 °F 75% 29.91 in 0.8 mi NE 10.4 mph - 0.00 in Snow Light Snow
9:49 AM 28.4 °F 21.2 °F 24.8 °F 86% 29.88 in 1.2 mi NNE 6.9 mph 17.3 mph 0.02 in Snow Light Snow
9:53 AM 28.9 °F 21.1 °F 25.0 °F 85% 29.93 in 1.0 mi NE 8.1 mph 17.3 mph 0.02 in Snow Light Snow
10:00 AM 28.4 °F 19.7 °F 24.8 °F 86% 29.88 in 0.2 mi NE 9.2 mph 17.3 mph 0.01 in Fog , Snow Heavy Snow
10:19 AM 28.4 °F 20.4 °F 26.6 °F 93% 29.88 in 0.5 mi NNE 8.1 mph 16.1 mph 0.03 in Fog , Snow Snow
10:29 AM 28.4 °F 19.1 °F 26.6 °F 93% 29.87 in 1.0 mi NE 10.4 mph 17.3 mph 0.04 in Snow Light Snow
10:37 AM 28.4 °F 19.7 °F 26.6 °F 93% 29.87 in 1.2 mi NE 9.2 mph 18.4 mph 0.04 in Snow Light Snow
10:42 AM 30.2 °F 20.8 °F 26.6 °F 86% 29.87 in 2.0 mi NE 11.5 mph 20.7 mph 0.04 in Snow Light Snow
10:51 AM 30.2 °F 22.6 °F 26.6 °F 86% 29.87 in 4.0 mi NE 8.1 mph 20.7 mph 0.04 in Snow Light Snow
10:53 AM 30.0 °F 19.5 °F 26.1 °F 85% 29.92 in 4.0 mi NE 13.8 mph 20.7 mph 0.04 in Snow Light Snow
12:18 PM 32.0 °F 20.5 °F 24.8 °F 75% 29.86 in 7.0 mi ENE 18.4 mph 28.8 mph 0.00 in Snow Light Snow
12:53 PM 32.0 °F 21.6 °F 24.1 °F 73% 29.88 in 5.0 mi ENE 15.0 mph 26.5 mph 0.00 in Snow Light Snow
2:53 PM 33.1 °F 23.9 °F 26.1 °F 75% 29.84 in 7.0 mi ENE 12.7 mph 26.5 mph 0.00 in Snow Light Snow
3:53 PM 33.1 °F 21.5 °F 26.1 °F 75% 29.83 in 7.0 mi ENE 19.6 mph 25.3 mph 0.00 in   Overcast
4:53 PM 32.0 °F 21.6 °F 25.0 °F 75% 29.83 in 10.0 mi ENE 15.0 mph 26.5 mph N/A   Overcast
5:53 PM 30.9 °F 22.2 °F 26.1 °F 82% 29.84 in 6.0 mi ENE 10.4 mph - 0.00 in   Overcast
6:48 PM 30.2 °F 21.9 °F 26.6 °F 86% 29.78 in 1.8 mi ENE 9.2 mph 17.3 mph 0.00 in Snow Light Snow
6:49 PM 30.9 °F 25.2 °F 26.1 °F 82% 29.83 in 1.8 mi Variable 5.8 mph 17.3 mph 0.00 in Snow Light Snow
7:00 PM 30.2 °F 20.2 °F 26.6 °F 86% 29.78 in 3.0 mi ENE 12.7 mph - 0.00 in Snow Light Snow
7:30 PM 30.2 °F 18.5 °F 24.8 °F 80% 29.77 in 2.0 mi ENE 17.3 mph 21.9 mph 0.00 in Snow Light Snow
7:46 PM 30.2 °F 20.8 °F 24.8 °F 80% 29.76 in 5.0 mi ENE 11.5 mph 20.7 mph 0.00 in Snow Light Snow
7:53 PM 30.0 °F 17.9 °F 23.0 °F 75% 29.81 in 4.0 mi ENE 18.4 mph 24.2 mph 0.00 in Snow Light Snow
8:31 PM 28.4 °F 18.5 °F 24.8 °F 86% 29.75 in 1.8 mi ENE 11.5 mph - 0.00 in Snow Light Snow
8:49 PM 28.4 °F 19.7 °F 24.8 °F 86% 29.76 in 2.0 mi ENE 9.2 mph 17.3 mph 0.00 in Snow Light Snow
8:53 PM 28.0 °F 17.0 °F 24.1 °F 85% 29.82 in 1.8 mi NE 13.8 mph 20.7 mph 0.00 in Snow Light Snow
9:41 PM 28.4 °F 19.7 °F 24.8 °F 86% 29.77 in 2.0 mi NE 9.2 mph 16.1 mph 0.01 in Snow Light Snow
9:48 PM 28.4 °F 19.7 °F 24.8 °F 86% 29.77 in 1.2 mi NE 9.2 mph - 0.01 in Snow Light Snow
9:53 PM 28.0 °F 19.3 °F 24.1 °F 85% 29.82 in 1.0 mi NE 9.2 mph - 0.01 in Snow Light Snow
10:00 PM 28.4 °F 21.2 °F 24.8 °F 86% 29.76 in 0.8 mi NE 6.9 mph - 0.00 in Snow Light Snow
10:24 PM 26.6 °F 21.2 °F 24.8 °F 93% 29.75 in 1.0 mi NNE 4.6 mph - 0.01 in Snow Light Snow
10:32 PM 26.6 °F 19.1 °F 24.8 °F 93% 29.75 in 1.8 mi NNE 6.9 mph - 0.01 in Snow Light Snow
10:38 PM 26.6 °F 19.1 °F 24.8 °F 93% 29.75 in 2.5 mi NE 6.9 mph - 0.01 in Snow Light Snow
10:41 PM 26.6 °F 20.0 °F 23.0 °F 86% 29.75 in 3.0 mi Variable 5.8 mph - 0.01 in Snow Light Snow
10:53 PM 27.0 °F 18.0 °F 23.0 °F 85% 29.80 in 2.0 mi NE 9.2 mph - 0.01 in Snow Light Snow
11:07 PM 26.6 °F 19.1 °F 23.0 °F 86% 29.74 in 4.0 mi NE 6.9 mph - 0.00 in Snow Light Snow
11:16 PM 26.6 °F 17.5 °F 23.0 °F 86% 29.74 in 6.0 mi NE 9.2 mph - 0.00 in   Overcast
11:53 PM 27.0 °F 18.0 °F 23.0 °F 85% 29.79 in 2.0 mi NE 9.2 mph - 0.00 in Snow Light Snow